TimeCST,TemperatureF,Dew PointF,Humidity,Sea Level PressureIn,VisibilityMPH,Wind Direction,Wind SpeedMPH,Gust SpeedMPH,PrecipitationIn,Events,Conditions,WindDirDegrees,DateUTC
1:53 AM,27.0,18.0,69,30.30,10.0,North,12.7,-,N/A,,Clear,360,2013-01-14 07:53:00
2:53 AM,26.1,18.0,71,30.32,10.0,North,10.4,-,N/A,,Clear,360,2013-01-14 08:53:00
3:53 AM,27.0,17.1,66,30.32,10.0,North,10.4,-,N/A,,Mostly Cloudy,360,2013-01-14 09:53:00
4:53 AM,27.0,18.0,69,30.34,10.0,NNE,8.1,-,N/A,,Overcast,30,2013-01-14 10:53:00
5:04 AM,26.6,17.6,69,30.31,7.0,NNE,8.1,-,0.00,Snow,Small Hail,30,2013-01-14 11:04:00
5:42 AM,26.6,17.6,69,30.31,10.0,North,6.9,-,0.00,,Overcast,10,2013-01-14 11:42:00
5:53 AM,27.0,18.0,69,30.34,10.0,North,9.2,-,0.00,,Overcast,360,2013-01-14 11:53:00
6:53 AM,28.0,18.0,66,30.36,10.0,North,6.9,-,N/A,,Overcast,360,2013-01-14 12:53:00
7:53 AM,28.0,17.1,63,30.39,10.0,North,8.1,-,N/A,,Overcast,10,2013-01-14 13:53:00
8:53 AM,28.9,18.0,64,30.38,10.0,NNE,6.9,17.3,N/A,,Mostly Cloudy,20,2013-01-14 14:53:00
9:53 AM,33.1,19.0,56,30.38,10.0,North,11.5,18.4,N/A,,Partly Cloudy,10,2013-01-14 15:53:00
10:53 AM,35.1,19.0,52,30.35,10.0,NNE,12.7,17.3,N/A,,Clear,20,2013-01-14 16:53:00
11:53 AM,39.0,19.0,45,30.32,10.0,NNE,11.5,17.3,N/A,,Clear,20,2013-01-14 17:53:00
12:53 PM,39.9,18.0,41,30.28,10.0,NE,11.5,18.4,N/A,,Clear,40,2013-01-14 18:53:00
1:53 PM,42.1,17.1,37,30.26,10.0,NE,9.2,-,N/A,,Clear,40,2013-01-14 19:53:00
2:53 PM,43.0,19.9,40,30.25,10.0,ENE,9.2,-,N/A,,Clear,60,2013-01-14 20:53:00
4:53 PM,42.1,21.9,45,30.26,10.0,East,9.2,-,N/A,,Clear,80,2013-01-14 22:53:00
5:53 PM,39.9,23.0,51,30.27,10.0,ENE,4.6,-,N/A,,Clear,60,2013-01-14 23:53:00
6:53 PM,37.0,23.0,57,30.27,10.0,NE,4.6,-,N/A,,Clear,50,2013-01-15 00:53:00
7:53 PM,36.0,24.1,62,30.27,10.0,NNE,6.9,-,N/A,,Clear,30,2013-01-15 01:53:00
8:53 PM,34.0,23.0,64,30.28,10.0,NNE,5.8,-,N/A,,Clear,30,2013-01-15 02:53:00
9:53 PM,33.1,21.9,64,30.26,10.0,NNE,6.9,-,N/A,,Clear,20,2013-01-15 03:53:00
10:53 PM,32.0,21.9,66,30.25,10.0,NNE,4.6,-,N/A,,Clear,30,2013-01-15 04:53:00
11:53 PM,30.9,21.9,69,30.26,10.0,NNE,4.6,-,N/A,,Scattered Clouds,30,2013-01-15 05:53:00